www.pogodaiklimat.ru

Погода и климат >> Архив погоды >> Бангладеш >> Читтагонг


ПОГОДА в Читтагонге

  • Прогноз погоды в Читтагонге
  • Монитор погоды в Читтагонге

АРХИВ ПОГОДЫ в Читтагонге

Время (UTC), дата Ветер
(напр.,м/с)
 
Видим.   Явления Облачность Т
(С)
Тd
(С)
f
(%)
Тe
(С)
Тes
(С)
Комфортность P
(гПа)
Po
(гПа)
Тmin
(С)
Tmax
(С)
R
(мм)
R24
(мм)
S
(см)
18 11.09 Ю 6 4000 м {дождь} 10/5 240 м
[Cb calv As op]
+26.3 +25.0 93 +38 +38 очень
душно
1007.6 1006.9 4
21 11.09 Ю 5 4000 м 10/5 240 м
[Cb calv As op]
+26.2 +25.0 93 +37 +37 очень
душно
1006.8 1006.2
00 12.09 ЮВ 4 3500 м слаб. дождь 10/5 180 м
[Cb calv As op]
+26.4 +25.0 92 +38 +38 очень
душно
1007.5 1006.8 1
03 12.09 Ю 5 4000 м в посл. час дождь 10/5 240 м
[Cb calv As op]
+28.0 +26.0 89 +42 +43 опасность
перегрева
1010.1 1009.4 +25.5
06 12.09 Ю 4 2500 м дождь 10/6 210 м
[Cb calv As op]
+26.6 +26.0 97 +40 +41 очень
душно
1009.2 1008.5 18
09 12.09 ЮЗ 6 2500 м слаб. дождь 10/8 210 м
[Cb calv As op]
+26.8 +26.0 95 +40 +40 очень
душно
1007.3 1006.6 72
12 12.09 Ю 2 2800 м слаб. дождь 10/6 210 м
[Cb calv As op]
+26.7 +26.5 99 +41 +41 опасность
перегрева
1008.1 1007.4 +28.3 82
15 12.09 ЮВ 3 3500 м в посл. час дождь 10/5 420 м
[Cb calv As op]
+25.4 +24.0 92 +35 +35 очень
душно
1010.2 1009.6 3
18 12.09 ЮВ 2 3200 м слаб. дождь 10/5 240 м
[Cb calv As op]
+25.2 +24.0 93 +35 +35 очень
душно
1010.4 1009.8 8
21 12.09 ЮВ 2 3200 м в посл. час дождь 10/5 420 м
[Cb calv As op]
+25.2 +24.0 93 +35 +35 очень
душно
1009.4 1008.8 2
00 13.09 штиль 0 3200 м {дождь} 10/5 450 м
[Cb calv As op]
+25.2 +24.0 93 +35 +35 очень
душно
1009.6 1009.0 2
03 13.09 ЮВ 2 4000 м {дождь} 10/5 450 м
[Cb calv As op]
+26.7 +26.0 96 +40 +41 очень
душно
1011.4 1010.7 +24.3 0.4
06 13.09 Ю 5 3500 м слаб. морось {дождь} 10/5 210 м
[Cb calv As op]
+28.4 +26.0 87 +43 +44 опасность
перегрева
1010.7 1010.0 0.4
09 13.09 Ю 4 4000 м слаб. морось {дождь} 10/5 360 м
[Cb calv As op]
+28.3 +26.0 87 +42 +43 опасность
перегрева
1008.0 1007.3 1
12 13.09 Ю 3 4000 м {дождь, морось} 9/5 480 м
[Cb calv As op]
+28.2 +23 +23 комфорт 1008.3 1007.6 +29.2 0.0
15 13.09 Ю 2 3500 м слаб. дождь 10/4 240 м
[Cb calv As op]
+27.0 +26.0 94 +40 +40 очень
душно
1010.0 1009.3 0.2
18 13.09 Ю 2 4000 м {дождь} 9/4 480 м
[Sc Ac As]
+26.6 +26.0 97 +40 +40 очень
душно
1009.6 1008.9 1
21 13.09 штиль 0 4000 м 8/4 480 м
[Sc Ac trans]
+26.6 +26.0 97 +40 +40 очень
душно
998.3 1007.6
00 14.09 Ю 2 4000 м 8/4 480 м
[Sc Ac trans]
+26.0 +25.0 94 +37 +37 очень
душно
1009.0 1008.3
03 14.09 Ю 2 6000 м 4/3 540 м
[Sc As op]
+30.4 +25.0 73 +44 +51 опасность
перегрева
1010.1 1009.5 +25.5
06 14.09 ЮЗ 3 6000 м 4/3 540 м
[Sc As op]
+31.5 +27.0 77 +49 +59 опасность
перегрева
1009.5 1008.9
09 14.09 З 3 5000 м 5/3 540 м
[Sc As op]
+32.0 +26.0 71 +48 +52 опасность
перегрева
1006.5 1005.9
12 14.09 ЮЗ 3 5000 м 6/3 540 м
[Sc As op]
+30.0 +27.0 84 +47 +47 опасность
перегрева
1006.4 1005.8 +32.0
15 14.09 ЮЗ 3 5000 м 5/1 540 м
[Sc Ac trans]
+28.4 +26.0 87 +43 +43 опасность
перегрева
1008.8 1008.1
18 14.09 штиль 0 5000 м 8/4 480 м
[Sc As op]
+27.8 +26.0 90 +42 +42 опасность
перегрева
1008.3 1007.6
21 14.09 штиль 0 5000 м 6/3 480 м
[Sc Ac trans]
+27.4 +26.0 92 +41 +41 опасность
перегрева
1007.5 1006.8
00 15.09 штиль 0 4000 м мгла 5/3 540 м
[Sc diur, vesp Ac trans]
+27.0 +26.0 94 +40 +40 очень
душно
1007.7 1007.0
03 15.09 штиль 0 5000 м 5/3 540 м
[Sc diur, vesp Ac trans]
+29.0 +27.0 89 +46 +54 опасность
перегрева
1008.6 1007.9 +26.8
06 15.09 штиль 0 5000 м 5/3 540 м
[Sc diur, vesp Ac trans]
+32.5 +26.0 69 +48 +63 опасность
перегрева
1007.2 1006.6 15
09 15.09 З 3 5000 м 8/4 540 м
[Sc As op]
+31.8 +26.0 71 +47 +49 опасность
перегрева
1004.4 1003.8
12 15.09 ЮЗ 2 5000 м 8/4 540 м
[Sc As op]
+30.4 +26.0 77 +45 +45 опасность
перегрева
1005.0 1004.4 +32.8
15 15.09 штиль 0 5000 м 4/3 540 м
[Sc Ac trans]
+29.0 +28.0 94 +48 +48 опасность
перегрева
1007.6 1007.0
18 15.09 штиль 0 5000 м 4/3 540 м
[Sc Ac trans]
+28.5 +28.0 97 +47 +47 опасность
перегрева
1007.3 1006.7
21 15.09 штиль 0 5000 м 8/4 540 м
[Sc As op]
+27.5 +27.0 97 +43 +43 опасность
перегрева
1006.6 1006.0
00 16.09 штиль 0 4000 м 8/5 540 м
[Sc As op]
+27.0 +26.0 94 +40 +40 очень
душно
1007.0 1006.4
03 16.09 штиль 0 6000 м 8/4 540 м
[Cu Sc Ac trans]
+30.5 +26.0 77 +46 +51 опасность
перегрева
1008.1 1007.5 +26.5
06 16.09 ЮЗ 4 6000 м 8/4 540 м
[Sc diur, vesp Ac trans Ci fib]
+32.6 +26.0 68 +48 +54 опасность
перегрева
1006.8 1006.2 0.0
09 16.09 З 3 5000 м 5/5 540 м
[]
+32.3 +26.0 69 +48 +52 опасность
перегрева
1004.2 1003.6
12 16.09 З 3 5000 м 5/3 540 м
[Sc As op]
+30.5 +27.0 82 +48 +48 опасность
перегрева
1003.5 1002.9 +32.8
15 16.09 штиль 0 5000 м 5/3 540 м
[Sc As op]
+29.0 +27.0 89 +46 +46 опасность
перегрева
1006.8 1006.1
18 16.09 штиль 0 5000 м 5/3 540 м
[Sc As op]
+28.0 +27.0 94 +44 +44 опасность
перегрева
1007.3 1006.6
21 16.09 штиль 0 4000 м 5/3 540 м
[Sc As op]
+27.0 +26.0 94 +40 +40 очень
душно
1006.8 1006.1
00 17.09 штиль 0 4000 м 5/3 540 м
[Sc As op]
+27.5 +27.0 97 +43 +43 опасность
перегрева
1006.8 1006.1
03 17.09 штиль 0 5000 м 5/3 540 м
[Sc diur, vesp Ac trans]
+31.6 +27.0 77 +50 +58 опасность
перегрева
1008.6 1008.0 +27.0
06 17.09 З 2 5000 м 1/1 900 м
[Cu hum]
+33.4 +24.0 58 +45 +62 опасность
перегрева
1008.0 1007.4
09 17.09 СЗ 3 5000 м 1/1 540 м
[Sc]
+34.1 +24.0 56 +46 +53 опасность
перегрева
1005.8 1005.2
12 17.09 СЗ 3 5000 м 5/0
[As op]
+32.0 +26.0 71 +48 +48 опасность
перегрева
1006.4 1005.8 +34.3
15 17.09 штиль 0 5000 м 4/0
[Ac trans]
+29.5 +27.0 86 +46 +46 опасность
перегрева
1008.2 1007.6 50
18 17.09 штиль 0 5000 м 8/4 540 м
[Sc Ac trans]
+29.4 +27.0 87 +46 +46 опасность
перегрева
1009.1 1008.4
21 17.09 штиль 0 5000 м 8/4 540 м
[Sc Ac trans]
+28.2 +26.0 88 +42 +42 опасность
перегрева
1008.9 1008.2
00 18.09 штиль 0 5000 м 9/4 300 м
[Sc Ac As]
+27.4 +25.0 87 +39 +39 очень
душно
1009.7 1009.0
03 18.09 ЮВ 2 6000 м 4/3 540 м
[Sc As op]
+31.0 +24.0 66 +43 +49 опасность
перегрева
1011.1 1010.5 +27.0
06 18.09 С 2 6000 м 4/3 540 м
[Sc As op]
+33.8 +25.0 60 +47 +59 опасность
перегрева
1010.6 1010.0
09 18.09 З 3 5000 м 5/3 540 м
[Sc As op]
+34.2 +25.0 59 +48 +52 опасность
перегрева
1008.1 1007.5
12 18.09 З 4 5000 м 6/4 540 м
[Sc As op]
+31.9 +27.0 75 +50 +50 опасность
перегрева
1008.0 1007.4 +35.1
15 18.09 штиль 0 5000 м 3/0
[Ac trans]
+30.2 +28.0 88 +50 +50 опасность
перегрева
1010.6 1009.9

 

Местоположение метеостанции Читтагонг (Бангладеш): широта 22.27 долгота 91.82 высота над уровнем моря 6 м.

В архиве по умолчанию представлена погода в Читтагонге за последнюю неделю. Архивные данные за месяц целиком и за предыдущие месяцы, начиная с января 2011 года, Вы можете получить, выбрав интересующий диапазон дат из раскрывающегося списка и нажав кнопку "Ввод!".


*Определитесь, кто Вы:
робот инопланетянин человек

Внимание! Время в таблицах - всемирное. Для получения местного времени необходимо прибавить поправку, которая равна 6.5 ч.

Смотрите также архив погоды в соседних городах и на ближайших метеорологических станциях:

Погода в Ситакунду (Бангладеш) (37 км)
Погода в Сандвипе (Бангладеш) (46 км)
Погода в Рангамати (Бангладеш) (49 км)
Погода в Кутапдии (Бангладеш) (50 км)
Погода в Хатии (Бангладеш) (76 км)
Погода в Фени (Бангладеш) (94 км)
Погода в Кокс-Базаре (Бангладеш) (94 км)
Погода в Маиидиcурте (Бангладеш) (100 км)
Погода в Бхоле (Бангладеш) (129 км)
Погода в Комилле (Бангладеш) (145 км)

Пояснения к столбцам:

Ветер - указаны скорость ветра в м/с - средняя за 10 мин, порывы в срок и между сроками (в фигурных скобках) и направление, откуда дует ветер: С - северный, СВ - северо-восточный, В - восточный, ЮВ - юго-восточный, Ю - южный, ЮЗ - юго-западный, З - западный, СЗ - северо-западный.
Видимость - горизонтальная дальность видимости в метрах или километрах. При видимости от 1 до 10 км при отсутствии осадков обычно наблюдается дымка, при ухудшении видимости до 1 км и менее - туман. В сухую погоду видимость может ухудшаться дымом, пылью или мглою.
Явления - указаны атмосферные явления, наблюдавшиеся в срок или в последний час перед сроком; фигурными скобками обозначены явления, наблюдавшиеся между сроками (за 1-3 часа до срока); квадратными скобками обозначены град или гололедные отложения с указанием их диаметра в мм.
Облачность - указаны через наклонную черту общая и нижняя облачность в баллах и высота нижней границы облаков в метрах; квадратными скобками обозначены формы облаков: Ci - перистые, Cs - перисто-слоистые, Cc - перисто-кучевые, Ac - высококучевые, As - высокослоистые, Sc - слоисто-кучевые, Ns - слоисто-дождевые, Cu - кучевые, Cb - кучево-дождевые. Подробнее классификацию облаков см. в Атласе облаков (PDF).
T - Температура воздуха - температура, измеренная на высоте 2 м над землей.
Td - Температура точки росы - температура, при понижении до которой содержащийся в воздухе водяной пар достигнет насыщения.
f - Относительная влажность воздуха - влажноcть воздуха, измеренная на высоте 2 м над землей.
Te - Эффективная температура - температура, которую ощущает одетый по сезону человек в тени. Характеристика душности погоды. При расчете учитывается влияние влажности воздуха и скорости ветра на теплоощущения человека.
Tes - Эффективная температура на солнце - температура, которую ощущает человек, с поправкой на солнечный нагрев. Характеристика знойности погоды. Зависит от высоты солнца над горизонтом, облачности и скорости ветра. Ночью, в пасмурную погоду, а также при ветре 12 м/с и более поправка равна нулю.
P - Атмосферное давление - приведенное к уровню моря атмосферное давление.
Po - Атмосферное давление - измеренное на уровне метеостанции атмосферное давление.
Tmin - Минимальная температура - минимум температуры воздуха на высоте 2 м над землей.
Tmax - Максимальная температура - максимум температуры воздуха на высоте 2 м над землей.
R - Количество осадков - Количество выпавших осадков за период времени, мм. При наведении курсора мыши на число - период времени, за который выпало указанное количество осадков.
R24 - Количество осадков - Количество выпавших осадков за 24 часа, мм.
S - Снежный покров - Высота снежного покрова, см. При наведении курсора мыши на число - состояние снежного покрова и степень покрытия местности в баллах.